Regional Weather Roundup
Issued by NWS Northern Indiana

Home | Current Version | Previous Version | Graphics & Text | Print | Product List | Glossary On
Versions: 1 2 3 4 5 6 7 8 9 10 11 12 13 14 15 16 17 18 19 20 21 22 23 24 25 26 27 28 29 30 31 32 33 34 35 36 37 38 39 40 41 42 43 44 45 46 47 48 49 50
000
ASUS43 KIWX 261100
RWRIWX

KIWX WEATHER ROUNDUP
NATIONAL WEATHER SERVICE NORTHERN INDIANA
700 AM EDT TUE MAY 26 2015

NOTE: "FAIR" INDICATES FEW OR NO CLOUDS BELOW 12,000 FEET WITH NO
SIGNIFICANT WEATHER AND/OR OBSTRUCTIONS TO VISIBILITY.

* THESE STATIONS ARE NOT UNDER NWS QUALITY CONTROL. THEY ALSO MAY NOT
  REPORT WEATHER SUCH AS PRECIPITATION OR FOG.

INZ001>027-261200-
NORTHERN INDIANA

CITY           SKY/WX    TMP DP  RH WIND       PRES   REMARKS
GARY*          CLOUDY    70  66  88 S9        29.97R
SOUTH BEND     CLOUDY    67  64  90 S10       30.01R
ELKHART*       CLOUDY    66  64  94 S7        30.03
GOSHEN         CLOUDY    66  63  90 S7        30.03R FOG
ANGOLA*        CLOUDY    64  64 100 S8        30.05R
FORT WAYNE     CLOUDY    65  63  93 S10       30.07R
PERU/GRISSOM   MOCLDY    66  64  94 S9        30.02S

$$
INZ028>050-261200-
CENTRAL INDIANA

CITY           SKY/WX    TMP DP  RH WIND       PRES   REMARKS
LAFAYETTE      CLOUDY    67  64  90 S7        30.01S
KOKOMO*        MOCLDY    66  63  88 S10       30.03F
MUNCIE*        PTCLDY    67  64  90 S7        30.06S
INDIANAPOLIS   CLOUDY    67  63  87 SE10      30.03S

$$
MIZ043>046-050>051-056>058-064>065-071>073-077>080-261200-
SOUTHWEST LOWER MICHIGAN

CITY           SKY/WX    TMP DP  RH WIND       PRES   REMARKS
BATTLE CREEK   CLOUDY    67  63  87 S8        30.03R
BENTON HARBOR  MOCLDY    66  64  93 S8        29.99R FOG
COLDWATER*     CLOUDY    65  63  94 S7        30.05R FOG
HILLSDALE*     CLOUDY    65  65 100 S8        30.06R FOG
HOLLAND        PTCLDY    65  63  93 S8        29.99R
GRAND RAPIDS   MOCLDY    65  63  93 S7        30.00R
KALAMAZOO      CLOUDY    68  63  84 S12       30.02R
STURGIS*       CLOUDY    64  63  94 S6        30.04R
THREE RIVERS*  CLOUDY    67  64  89 S7        30.03R

$$
OHZ001>008-015>018-024>025-261200-
NORTHWEST OHIO

CITY           SKY/WX    TMP DP  RH WIND       PRES   REMARKS
DEFIANCE       PTCLDY    64  62  93 S6        30.07R FOG
FINDLAY        PTCLDY    66  62  87 S7        30.08R
TOLEDO EXPRESS PTCLDY    64  62  93 S3        30.07R
TOLEDO METCALF PTCLDY    65  61  87 S7        30.09R
LIMA           PTCLDY    66  63  90 S8        30.09R

$$
AND FOR LAKE MICHIGAN COASTAL AND OPEN LAKE BUOY OBSERVATIONS

STATION/POSITION TEMP    WIND        PRES    VSBY  WAVE
                 AIR SEA DIR/SP/G                  HT/PER
                 (F)     (DEG/KT/KT) (MB)    (MI)  (FT/S)
CALUMET HARBOR    68     180/  8/ 11   N/A
MICHIGAN CITY     67     150/ 13/ 18   N/A
BURNS HARBOR      67     180/ 11/ 16 1015.2S
SAINT JOSEPH      67     160/  3/ 11 1016.3R
SOUTH LAKE BUOY   46 38  180/ 12/ 14 1014.7R         1
4 MI NW BRIDGMAN  61 54  190/  8/ 10   N/A           1
MICHIGAN CITY     62 52  200/ 10/ 12   N/A           1

$$
&&


USA.gov is the U.S. government's official web portal to all federal, state and local government web resources and services.